Regional Weather Roundup
Issued by NWS Cleveland, OH

Home | Current Version | Previous Version | Graphics & Text | Print | Product List | Glossary On
Versions: 1 2 3 4 5 6 7 8 9 10 11 12 13 14 15 16 17 18 19 20 21 22 23 24 25 26 27 28 29 30 31 32 33 34 35 36 37 38 39 40 41 42 43 44 45 46 47 48 49 50
000
ASUS41 KCLE 031500
RWRCLE
OHIO REGIONAL WEATHER ROUNDUP
NATIONAL WEATHER SERVICE WILMINGTON, OH
1100 AM EDT TUE MAY 03 2016

NOTE: "FAIR" INDICATES FEW OR NO CLOUDS BELOW 12,000 FEET WITH NO
SIGNIFICANT WEATHER AND/OR OBSTRUCTIONS TO VISIBILITY.

OHZ001>008-015>018-024>027-034-035-043-044-031600-
   NORTHWEST OHIO

CITY           SKY/WX    TMP DP  RH WIND       PRES   REMARKS
DEFIANCE       CLOUDY    54  44  69 CALM      29.94S
FINDLAY        PTSUNNY   54  43  66 NW6       29.92S
TOLEDO EXPRESS CLOUDY    55  45  68 NW3       29.92F
TOLEDO EXEC    PTSUNNY   55  43  63 CALM      29.93S
LIMA           CLOUDY    52  46  80 N5        29.93S
$$

OHZ009>014-019>023-028>033-038-089-031600-
   NORTHEAST OHIO

CITY           SKY/WX    TMP DP  RH WIND       PRES   REMARKS
CLE-HOPKINS    FAIR      54  40  59 N10       29.93S
CLE-LAKEFRONT  FAIR      50  45  83 NW7       29.91F
CUY CO. ARPT   NOT AVBL
LORAIN-ELYRIA  PTSUNNY   51  42  71 N9        29.92S
ASHTABULA      CLOUDY    48  41  76 N3        29.91S
AKRON-CANTON   PTSUNNY   53  42  66 VRB6      29.89F
WOOSTER        NOT AVBL
MANSFIELD      CLOUDY    52  45  77 N7        29.91S
YOUNGSTOWN     CLOUDY    50  41  71 N6        29.89S
$$

OHZ042-051>053-060>062-070>072-077>081-031600-
  SOUTHWEST OHIO

CITY           SKY/WX    TMP DP  RH WIND       PRES   REMARKS
CINC-COVINGTON CLOUDY    56  51  84 NW5       29.91S
CINC-LUNKEN    CLOUDY    56  50  80 N3        29.92S
HAMILTON       CLOUDY    56  49  77 N7        29.93R
DAYTON         NOT AVBL
WRIGHT-PAT AFB NOT AVBL
DAYTON GENERAL CLOUDY    53  45  74 N7        29.91S
WILMINGTON     CLOUDY    52  47  83 N8        29.90S
$$

OHZ036-037-039>041-045>050-054>059-063>069-073>076-082>088-031600-
  CENTRAL AND SOUTHEAST OHIO

CITY           SKY/WX    TMP DP  RH WIND       PRES   REMARKS
COLUMBUS       CLOUDY    53  44  71 NE7       29.90S
OSU AIRPORT    CLOUDY    54  44  69 VRB5      29.90F
BOLTON FIELD   CLOUDY    54  45  71 N3        29.91S
RICKENBACK AFB NOT AVBL
NEWARK         CLOUDY    56  42  59 N6        29.90R
MARION         CLOUDY    53  46  77 N8        29.92F
LANCASTER      CLOUDY    53  45  74 N5        29.91R
ZANESVILLE     CLOUDY    55  43  63 VRB5      29.90R
NEW PHILLY     CLOUDY    55  42  61 N7        29.90S
$$




USA.gov is the U.S. government's official web portal to all federal, state and local government web resources and services.